Flag for U.S.A. Weather past 2 weeks in Boise, Idaho, U.S.A.

Now
76 °F

Sunny.


Feels Like: 77 °F
Forecast: 61 / 78 °F
Wind: 9 mph from West

Location: Boise Air Terminal

Current Time: Aug 30, 2014 at 2:50:47 PM

Latest Report: Aug 30, 2014 at 1:53 PM


Visibility: 10 mi

Pressure: 29.82 "Hg

Humidity: 29%

Dew point: 41 °F

Location of BoiseLocation

Historic Weather in Boise — Graph

°F

Boise temperature yesterday

Maximum temperature yesterday: 90 °F (at 3:53 PM)
Minimum temperature yesterday: 62 °F (at 4:53 AM)
Average temperature yesterday: 76 °F

Past Weeks' High & Low Weather Summary

 TemperatureHumidityPressure
High94 °F (Aug 17, 5:53 PM)77% (Aug 23, 6:53 AM)30.08 "Hg (Aug 23, 6:53 AM)
Low52 °F (Aug 23, 7:53 AM)14% (Aug 17, 5:53 PM)29.56 "Hg (Aug 19, 5:53 PM)
Average73 °F38%29.88 "Hg
* Reported Aug 15 1:53 PM — Aug 30 1:53 PM, Boise, Weather by CustomWeather, © 2014

Note: Actual official high and low records may vary slightly from our data, if they occured in-between our weather recording intervals... More about our weather records

Advertising

Boise weather history for previous 24 hours

 ConditionsComfort  
Time TempWeatherWind HumidityBarometerVisibility
1:53 PM
Aug 30
76 °FSunny.9 mph29%29.82 "Hg10 mi
12:53 PM74 °FSunny.5 mph31%29.83 "Hg10 mi
11:53 AM74 °FSunny.9 mph32%29.84 "Hg10 mi
10:53 AM69 °FSunny.8 mph39%29.85 "Hg10 mi
9:53 AM66 °FSunny.9 mph43%29.84 "Hg10 mi
8:53 AM64 °FPassing clouds.9 mph47%29.83 "Hg10 mi
7:53 AM64 °FPassing clouds.8 mph49%29.81 "Hg10 mi
6:53 AM65 °FPassing clouds.7 mph44%29.78 "Hg10 mi
5:53 AM66 °FPassing clouds.7 mph45%29.77 "Hg10 mi
4:53 AM67 °FPassing clouds.9 mph44%29.74 "Hg10 mi
3:53 AM67 °FPassing clouds.7 mph44%29.73 "Hg10 mi
2:53 AM68 °FClear.8 mph44%29.73 "Hg10 mi
1:53 AM72 °FClear.5 mph46%29.72 "Hg10 mi
12:53 AM73 °FClear.7 mph51%29.72 "Hg10 mi
11:53 PM
Aug 29
75 °FLight rain. Passing clouds.12 mph45%29.72 "Hg9 mi
10:53 PM80 °FPassing clouds.5 mph26%29.69 "Hg10 mi
9:53 PM82 °FSunny.No wind26%29.70 "Hg10 mi
8:53 PM84 °FSunny.6 mph24%29.70 "Hg10 mi
7:53 PM87 °FSunny.5 mph20%29.70 "Hg10 mi
6:53 PM89 °FSunny.8 mph17%29.72 "Hg10 mi
5:53 PM90 °FSunny.10 mph17%29.73 "Hg10 mi
4:53 PM90 °FSunny.6 mph18%29.75 "Hg10 mi
3:53 PM90 °FSunny.5 mph17%29.77 "Hg10 mi
2:53 PM89 °FSunny.6 mph18%29.80 "Hg10 mi
Weather by CustomWeather, © 2014

See weather overviewHow to use our weather pages